TimeCET,TemperatureF,Dew PointF,Humidity,Sea Level PressureIn,VisibilityMPH,Wind Direction,Wind SpeedMPH,Gust SpeedMPH,PrecipitationIn,Events,Conditions,WindDirDegrees,DateUTC
12:00 AM,33.8,23.0,65,30.04,-9999.0,North,3.5,-,N/A,,Clear,350,2013-02-23 23:00:00
12:30 AM,33.8,23.0,65,30.04,-9999.0,SE,1.2,-,N/A,,Clear,130,2013-02-23 23:30:00
1:00 AM,32,21,53,30.15,19,NNW,2.3,,,,,340,2013-02-24 00:00:00
1:00 AM,33.8,23.0,65,30.04,-9999.0,North,3.5,-,N/A,,Clear,360,2013-02-24 00:00:00
1:30 AM,30.2,23.0,75,30.06,-9999.0,Variable,1.2,-,N/A,,Clear,0,2013-02-24 00:30:00
2:00 AM,32.0,21.2,64,30.06,-9999.0,WSW,1.2,-,N/A,,Clear,240,2013-02-24 01:00:00
2:30 AM,33.8,23.0,65,30.06,-9999.0,NNW,1.2,-,N/A,,Clear,330,2013-02-24 01:30:00
3:00 AM,32.0,23.0,69,30.06,-9999.0,NNW,4.6,-,N/A,,Clear,340,2013-02-24 02:00:00
3:30 AM,32.0,23.0,69,30.06,-9999.0,NW,5.8,-,N/A,,Clear,310,2013-02-24 02:30:00
4:00 AM,30.2,21.2,69,30.06,-9999.0,NNW,8.1,-,N/A,,Clear,330,2013-02-24 03:00:00
4:30 AM,30.2,21.2,69,30.06,-9999.0,NW,5.8,-,N/A,,Clear,320,2013-02-24 03:30:00
5:00 AM,30.2,21.2,69,30.06,-9999.0,NW,4.6,-,N/A,,Clear,310,2013-02-24 04:00:00
5:30 AM,32.0,19.4,60,30.06,6.2,NNE,4.6,-,N/A,,Partly Cloudy,30,2013-02-24 04:30:00
6:00 AM,28.4,19.4,69,30.06,-9999.0,Variable,3.5,-,N/A,,Clear,0,2013-02-24 05:00:00
6:30 AM,30.2,19.4,64,30.06,-9999.0,SSW,3.5,-,N/A,,Clear,210,2013-02-24 05:30:00
7:00 AM,29,19,55,30.17,19,SW,5.8,,,,,220,2013-02-24 06:00:00
7:00 AM,28.4,19.4,69,30.06,-9999.0,SW,3.5,-,N/A,,Clear,220,2013-02-24 06:00:00
8:00 AM,28.4,19.4,69,30.06,-9999.0,SE,1.2,-,N/A,,Clear,130,2013-02-24 07:00:00
8:30 AM,28.4,21.2,74,30.06,-9999.0,Variable,1.2,-,N/A,,Clear,0,2013-02-24 07:30:00
9:00 AM,30.2,21.2,69,30.06,-9999.0,North,3.5,-,N/A,,Clear,10,2013-02-24 08:00:00
9:30 AM,32.0,24.8,75,30.06,-9999.0,Variable,2.3,-,N/A,,Clear,0,2013-02-24 08:30:00
10:00 AM,37.4,24.8,60,30.06,-9999.0,South,1.2,-,N/A,,Clear,180,2013-02-24 09:00:00
10:30 AM,39.2,21.2,49,30.09,6.2,WNW,6.9,-,N/A,,Partly Cloudy,290,2013-02-24 09:30:00
11:00 AM,41.0,21.2,45,30.06,6.2,West,9.2,20.7,N/A,,Partly Cloudy,270,2013-02-24 10:00:00
11:30 AM,42.8,19.4,39,30.06,6.2,WNW,12.7,-,N/A,,Partly Cloudy,300,2013-02-24 10:30:00
12:00 PM,44.6,19.4,37,30.06,6.2,West,9.2,26.5,N/A,,Partly Cloudy,270,2013-02-24 11:00:00
12:30 PM,44.6,17.6,34,30.06,6.2,West,8.1,-,N/A,,Scattered Clouds,270,2013-02-24 11:30:00
1:00 PM,43,19,25,30.11,19,West,10.4,,,,Partly Cloudy,270,2013-02-24 12:00:00
1:00 PM,42.8,21.2,42,30.06,6.2,West,9.2,-,N/A,,Scattered Clouds,270,2013-02-24 12:00:00
1:30 PM,44.6,21.2,39,30.06,6.2,West,9.2,-,N/A,,Scattered Clouds,280,2013-02-24 12:30:00
2:00 PM,46.4,23.0,40,30.04,6.2,NNW,18.4,-,N/A,,Scattered Clouds,330,2013-02-24 13:00:00
2:30 PM,48.2,23.0,37,30.04,6.2,North,16.1,-,N/A,,Scattered Clouds,360,2013-02-24 13:30:00
3:00 PM,46.4,24.8,43,30.04,6.2,North,18.4,-,N/A,,Partly Cloudy,350,2013-02-24 14:00:00
3:30 PM,48.2,26.6,43,30.01,6.2,North,11.5,-,N/A,,Partly Cloudy,350,2013-02-24 14:30:00
4:00 PM,44.6,23.0,43,30.01,6.2,NNW,15.0,-,N/A,,Partly Cloudy,340,2013-02-24 15:00:00
4:30 PM,46.4,23.0,40,30.01,6.2,NW,15.0,-,N/A,,Partly Cloudy,310,2013-02-24 15:30:00
5:00 PM,46.4,24.8,43,30.01,6.2,WNW,12.7,-,N/A,,Scattered Clouds,300,2013-02-24 16:00:00
5:30 PM,46.4,26.6,46,30.01,6.2,NW,17.3,28.8,N/A,,Scattered Clouds,310,2013-02-24 16:30:00
6:00 PM,39.2,33.8,81,30.04,6.2,NNE,9.2,-,N/A,Rain,Light Rain,20,2013-02-24 17:00:00
7:00 PM,38,31,67,30.12,19,North,6.9,,,,Mostly Cloudy,0,2013-02-24 18:00:00
7:13 PM,37.4,32.0,81,30.06,-9999.0,North,12.7,-,N/A,Rain,Rain,360,2013-02-24 18:13:00
7:30 PM,35.6,35.6,100,30.06,6.2,North,11.5,-,N/A,Rain,Light Rain,360,2013-02-24 18:30:00
8:00 PM,35.6,33.8,93,30.06,6.2,North,4.6,-,N/A,,Partly Cloudy,360,2013-02-24 19:00:00
8:30 PM,33.8,33.8,100,30.06,6.2,Variable,1.2,-,N/A,,Partly Cloudy,0,2013-02-24 19:30:00
9:00 PM,33.8,28.4,81,30.06,6.2,Variable,2.3,-,N/A,,Partly Cloudy,0,2013-02-24 20:00:00
9:30 PM,35.6,28.4,75,30.09,-9999.0,NNE,4.6,-,N/A,,Clear,20,2013-02-24 20:30:00
10:00 PM,33.8,28.4,81,30.09,-9999.0,Variable,2.3,-,N/A,,Clear,0,2013-02-24 21:00:00
10:30 PM,33.8,28.4,81,30.09,-9999.0,Variable,2.3,-,N/A,,Clear,0,2013-02-24 21:30:00
11:00 PM,35.6,26.6,70,30.09,-9999.0,North,8.1,-,N/A,,Clear,360,2013-02-24 22:00:00
11:30 PM,35.6,26.6,70,30.09,6.2,North,9.2,-,N/A,,Partly Cloudy,360,2013-02-24 22:30:00